Location: Newark
(9.4667°S, 159.8167°E)
Time: 17:24:33
(UTC+00:00)

Courier 1B Rocket - Pass Details

Date: 25 November 2019
Orbit: 920 x 1202 km, 28.2° (Epoch: 12 December)

Event Time Altitude Azimuth Distance (km) Brightness Sun altitude
Rises 22:28:50 0° 269° (W) 3,582 7.6 50.1°
Reaches altitude 10° 22:32:16 10° 286° (WNW) 2,614 7.0 50.9°
Maximum altitude 22:36:31 19° 329° (NNW) 2,034 6.6 51.9°
Drops below altitude 10° 22:40:45 10° 13° (NNE) 2,603 7.3 52.9°
Sets 22:44:11 0° 31° (NNE) 3,562 8.0 53.6°
